When you browse on this site, cookies collect data to enhance your experience and personalize the content and advertising you see.
Visit our Privacy Policy to learn more. By continuing to use the site, you agree to this use of cookies and data.
  • In Italy
  • List of Countries
  • For 7 days
  • Water Temperature
  • Satellite Maps
  • Weather Map
  • Weather Widgets
  • user-avatar
    Login

    Hourly Weather Liege

    Today, 15 December, Saturday

    Time Temperature Precipitation Wind Pressure Humidity
    00:00 0°C° 0 mm 1 mps 759 mmHg 71%
    01:00 0°C° 0 mm 1 mps 759 mmHg 72%
    02:00 0°C° 0 mm 1 mps 759 mmHg 72%
    03:00 -1°C° 0 mm 1 mps 759 mmHg 73%
    04:00 -3°C° 0 mm 2 mps 759 mmHg 75%
    05:00 -3°C° 0 mm 2 mps 759 mmHg 76%
    06:00 -3°C° 0 mm 2 mps 759 mmHg 77%
    07:00 -3°C° 0 mm 2 mps 758 mmHg 75%
    08:00 -4°C° 0 mm 3 mps 758 mmHg 72%
    09:00 -2°C° 0 mm 3 mps 758 mmHg 69%
    10:00 -2°C° 0 mm 4 mps 758 mmHg 64%
    11:00 -1°C° 0 mm 4 mps 757 mmHg 59%
    12:00 0°C° 0 mm 4 mps 757 mmHg 54%
    13:00 -1°C° 0 mm 4 mps 756 mmHg 55%
    14:00 -1°C° 0 mm 4 mps 755 mmHg 57%
    15:00 -1°C° 0 mm 4 mps 755 mmHg 58%
    16:00 -1°C° 0 mm 5 mps 754 mmHg 58%
    17:00 -1°C° 0 mm 5 mps 754 mmHg 59%
    18:00 -2°C° 0 mm 6 mps 753 mmHg 59%
    19:00 -2°C° 0.2 mm 6 mps 752 mmHg 59%
    20:00 -2°C° 0.2 mm 6 mps 751 mmHg 60%
    21:00 -2°C° 0.2 mm 7 mps 750 mmHg 60%
    22:00 -2°C° 1.6 mm 7 mps 750 mmHg 69%
    23:00 -2°C° 1.6 mm 6 mps 749 mmHg 77%

    Tomorrow, 16 December, Sunday

    Time Temperature Precipitation Wind Pressure Humidity
    00:00 -1°C° 1.6 mm 6 mps 749 mmHg 86%
    01:00 -1°C° 0.6 mm 6 mps 748 mmHg 87%
    02:00 0°C° 0.6 mm 5 mps 748 mmHg 89%
    03:00 0°C° 0.6 mm 5 mps 747 mmHg 91%
    04:00 0°C° 0.1 mm 5 mps 747 mmHg 92%
    05:00 0°C° 0.1 mm 4 mps 747 mmHg 93%
    06:00 0°C° 0.1 mm 4 mps 747 mmHg 94%
    07:00 +1°C° 0 mm 4 mps 748 mmHg 94%
    08:00 +1°C° 0 mm 4 mps 748 mmHg 95%
    09:00 +1°C° 0 mm 4 mps 748 mmHg 95%
    10:00 +1°C° 0.3 mm 4 mps 748 mmHg 96%
    11:00 +3°C° 0.3 mm 4 mps 749 mmHg 96%
    12:00 +3°C° 0.3 mm 4 mps 749 mmHg 96%
    13:00 +3°C° 0.5 mm 4 mps 749 mmHg 96%
    14:00 +3°C° 0.5 mm 4 mps 749 mmHg 96%
    15:00 +3°C° 0.5 mm 4 mps 749 mmHg 96%
    16:00 +3°C° 0 mm 4 mps 749 mmHg 96%
    17:00 +3°C° 0 mm 3 mps 750 mmHg 95%
    18:00 +3°C° 0 mm 3 mps 750 mmHg 95%
    19:00 +2°C° 0 mm 3 mps 750 mmHg 95%
    20:00 +2°C° 0 mm 3 mps 750 mmHg 95%
    21:00 +2°C° 0 mm 3 mps 751 mmHg 95%
    22:00 +2°C° 0 mm 3 mps 751 mmHg 95%
    23:00 +2°C° 0 mm 3 mps 751 mmHg 94%

    Day after tomorrow, 17 December, Monday

    Time Temperature Precipitation Wind Pressure Humidity
    00:00 +2°C° 0 mm 3 mps 751 mmHg 94%
    01:00 +2°C° 0.1 mm 3 mps 750 mmHg 94%
    02:00 +2°C° 0.1 mm 3 mps 750 mmHg 94%
    03:00 +2°C° 0.1 mm 3 mps 750 mmHg 94%
    04:00 +2°C° 0.4 mm 3 mps 750 mmHg 94%
    05:00 +2°C° 0.4 mm 3 mps 751 mmHg 94%
    06:00 +2°C° 0.4 mm 3 mps 751 mmHg 94%
    07:00 +3°C° 0.7 mm 2 mps 751 mmHg 95%
    08:00 +3°C° 0.7 mm 2 mps 752 mmHg 96%
    09:00 +4°C° 0.7 mm 1 mps 753 mmHg 96%
    10:00 +4°C° 0.3 mm 2 mps 753 mmHg 96%
    11:00 +4°C° 0.3 mm 2 mps 754 mmHg 95%
    12:00 +5°C° 0.3 mm 2 mps 754 mmHg 95%
    13:00 +5°C° 0 mm 2 mps 755 mmHg 95%
    14:00 +5°C° 0 mm 2 mps 755 mmHg 96%
    15:00 +5°C° 0 mm 2 mps 756 mmHg 96%
    16:00 +3°C° 0 mm 3 mps 757 mmHg 96%
    17:00 +3°C° 0 mm 3 mps 757 mmHg 96%
    18:00 +2°C° 0 mm 3 mps 758 mmHg 96%
    19:00 +2°C° 0 mm 3 mps 758 mmHg 95%
    20:00 +2°C° 0 mm 3 mps 759 mmHg 95%
    21:00 +2°C° 0 mm 3 mps 759 mmHg 95%
    22:00 +2°C° 0 mm 3 mps 759 mmHg 95%
    23:00 +2°C° 0 mm 3 mps 759 mmHg 95%

    18 December, Tuesday

    Time Temperature Precipitation Wind Pressure Humidity
    00:00 +2°C° 0 mm 3 mps 759 mmHg 95%
    01:00 +2°C° 0 mm 3 mps 759 mmHg 94%
    02:00 +1°C° 0 mm 4 mps 759 mmHg 94%
    03:00 +1°C° 0 mm 4 mps 759 mmHg 94%
    04:00 +1°C° 0 mm 4 mps 759 mmHg 94%
    05:00 +1°C° 0 mm 4 mps 758 mmHg 94%
    06:00 +1°C° 0 mm 4 mps 758 mmHg 94%
    07:00 +3°C° 0 mm 4 mps 758 mmHg 93%
    08:00 +3°C° 0 mm 4 mps 758 mmHg 92%
    09:00 +2°C° 0 mm 5 mps 758 mmHg 91%
    10:00 +3°C° 0 mm 5 mps 758 mmHg 86%
    11:00 +5°C° 0 mm 5 mps 757 mmHg 82%
    12:00 +6°C° 0 mm 5 mps 756 mmHg 77%
    13:00 +5°C° 0 mm 5 mps 755 mmHg 76%
    14:00 +5°C° 0 mm 5 mps 755 mmHg 75%
    15:00 +3°C° 0 mm 6 mps 754 mmHg 74%
    16:00 +3°C° 0 mm 6 mps 753 mmHg 73%
    17:00 +3°C° 0 mm 6 mps 752 mmHg 72%
    18:00 +2°C° 0 mm 6 mps 752 mmHg 72%
    19:00 +2°C° 0 mm 6 mps 752 mmHg 71%
    20:00 +3°C° 0 mm 6 mps 751 mmHg 71%
    21:00 +3°C° 0 mm 6 mps 751 mmHg 70%
    22:00 +3°C° 0 mm 6 mps 751 mmHg 72%
    23:00 +3°C° 0 mm 6 mps 750 mmHg 74%

    19 December, Wednesday

    Time Temperature Precipitation Wind Pressure Humidity
    00:00 +4°C° 0 mm 6 mps 750 mmHg 76%
    01:00 +4°C° 0.2 mm 6 mps 750 mmHg 79%
    02:00 +4°C° 0.2 mm 6 mps 750 mmHg 82%
    03:00 +4°C° 0.2 mm 6 mps 750 mmHg 86%
    04:00 +4°C° 0.2 mm 6 mps 750 mmHg 87%
    05:00 +5°C° 0.2 mm 5 mps 750 mmHg 89%
    06:00 +6°C° 0.2 mm 4 mps 750 mmHg 91%
    07:00 +6°C° 0 mm 4 mps 751 mmHg 91%
    08:00 +6°C° 0 mm 4 mps 751 mmHg 92%
    09:00 +7°C° 0 mm 3 mps 752 mmHg 93%
    10:00 +6°C° 0 mm 4 mps 752 mmHg 90%
    11:00 +7°C° 0 mm 4 mps 752 mmHg 88%
    12:00 +7°C° 0 mm 4 mps 752 mmHg 85%
    13:00 +8°C° 0 mm 3 mps 752 mmHg 87%
    14:00 +7°C° 0 mm 3 mps 752 mmHg 89%
    15:00 +7°C° 0 mm 3 mps 752 mmHg 91%
    16:00 +7°C° 0 mm 3 mps 752 mmHg 91%
    17:00 +7°C° 0 mm 3 mps 752 mmHg 92%
    18:00 +5°C° 0 mm 3 mps 752 mmHg 92%
    19:00 +5°C° 0 mm 3 mps 753 mmHg 93%
    20:00 +6°C° 0 mm 2 mps 753 mmHg 94%
    21:00 +5°C° 0 mm 2 mps 753 mmHg 95%
    22:00 +5°C° 0 mm 2 mps 753 mmHg 95%
    23:00 +5°C° 0 mm 2 mps 753 mmHg 95%

    20 December, Thursday

    Time Temperature Precipitation Wind Pressure Humidity
    00:00 +5°C° 0 mm 2 mps 753 mmHg 95%
    01:00 +4°C° 0 mm 3 mps 754 mmHg 95%
    02:00 +3°C° 0 mm 3 mps 754 mmHg 95%
    03:00 +3°C° 0 mm 3 mps 754 mmHg 95%
    04:00 +3°C° 0 mm 3 mps 754 mmHg 94%
    05:00 +3°C° 0 mm 3 mps 754 mmHg 94%
    06:00 +3°C° 0 mm 3 mps 755 mmHg 94%
    07:00 +3°C° 0 mm 3 mps 755 mmHg 93%
    08:00 +3°C° 0 mm 3 mps 755 mmHg 93%
    09:00 +4°C° 0 mm 3 mps 756 mmHg 92%
    10:00 +4°C° 0 mm 4 mps 756 mmHg 89%
    11:00 +5°C° 0 mm 4 mps 756 mmHg 86%
    12:00 +6°C° 0 mm 4 mps 756 mmHg 83%
    13:00 +5°C° 0 mm 4 mps 756 mmHg 85%
    14:00 +5°C° 0 mm 3 mps 756 mmHg 87%
    15:00 +4°C° 0 mm 3 mps 756 mmHg 88%
    16:00 +4°C° 0 mm 3 mps 757 mmHg 90%
    17:00 +3°C° 0 mm 4 mps 757 mmHg 91%
    18:00 +3°C° 0 mm 4 mps 757 mmHg 92%
    19:00 +3°C° 0 mm 4 mps 758 mmHg 92%
    20:00 +3°C° 0 mm 4 mps 758 mmHg 92%
    21:00 +3°C° 0 mm 4 mps 758 mmHg 92%
    22:00 +3°C° 0 mm 4 mps 758 mmHg 92%
    23:00 +3°C° 0 mm 4 mps 758 mmHg 92%
    Show more